TimeEST,TemperatureF,Dew PointF,Humidity,Sea Level PressureIn,VisibilityMPH,Wind Direction,Wind SpeedMPH,Gust SpeedMPH,PrecipitationIn,Events,Conditions,WindDirDegrees,DateUTC
12:53 AM,30.0,21.0,69,30.10,3.0,ENE,11.5,-,0.00,Snow,Light Snow,70,2011-11-23 05:53:00
1:08 AM,30.2,21.2,69,30.06,1.8,ENE,10.4,-,0.00,Snow,Light Snow,60,2011-11-23 06:08:00
1:15 AM,28.4,23.0,80,30.07,1.5,ENE,11.5,-,0.00,Snow,Light Snow,60,2011-11-23 06:15:00
1:24 AM,28.4,24.8,86,30.05,1.0,NE,11.5,18.4,0.00,Snow,Light Snow,50,2011-11-23 06:24:00
1:39 AM,28.4,24.8,86,30.04,1.0,ENE,15.0,19.6,0.01,Snow,Light Snow,60,2011-11-23 06:39:00
1:53 AM,28.9,26.1,89,30.06,1.2,ENE,11.5,-,0.02,Snow,Light Snow,60,2011-11-23 06:53:00
2:11 AM,30.2,26.6,86,30.03,1.2,NE,8.1,-,0.01,Snow,Light Snow,50,2011-11-23 07:11:00
2:19 AM,30.2,26.6,86,30.02,1.2,NE,10.4,-,0.02,Snow,Light Snow,50,2011-11-23 07:19:00
2:41 AM,30.2,26.6,86,30.00,0.8,NE,12.7,-,0.03,Snow,Light Snow,40,2011-11-23 07:41:00
2:51 AM,30.2,26.6,86,29.98,1.0,NE,15.0,-,0.04,Snow,Light Snow,50,2011-11-23 07:51:00
2:53 AM,30.0,27.0,88,30.00,1.0,NE,15.0,-,0.04,Snow,Light Snow,40,2011-11-23 07:53:00
3:07 AM,30.2,26.6,86,29.97,2.0,NE,15.0,-,0.02,Snow,Light Snow,50,2011-11-23 08:07:00
3:31 AM,30.2,26.6,86,29.96,1.8,NE,16.1,-,0.04,Snow,Light Snow,50,2011-11-23 08:31:00
3:51 AM,30.2,28.4,93,29.94,1.0,NE,13.8,-,0.06,Snow,Light Snow,50,2011-11-23 08:51:00
3:53 AM,30.2,28.4,93,29.94,1.0,NE,15.0,-,N/A,Snow,Light Snow,40,2011-11-23 08:53:00
4:10 AM,30.2,28.4,93,29.91,0.8,NE,17.3,25.3,0.02,Snow,Light Snow,40,2011-11-23 09:10:00
4:53 AM,30.9,28.0,89,29.92,1.0,NE,18.4,-,0.04,Snow,Light Snow,50,2011-11-23 09:53:00
5:53 AM,32.0,28.4,87,29.88,1.0,NE,16.1,23.0,N/A,Snow,Light Snow,40,2011-11-23 10:53:00
6:45 AM,30.2,26.6,86,29.88,0.8,NE,16.1,-,0.02,Snow,Light Snow,40,2011-11-23 11:45:00
6:53 AM,30.2,26.6,86,29.88,0.8,NE,16.1,-,N/A,Snow,Light Snow,40,2011-11-23 11:53:00
7:26 AM,30.2,26.6,86,29.88,0.5,NE,13.8,-,0.01,Fog-Snow,Snow,40,2011-11-23 12:26:00
7:53 AM,30.0,27.0,88,29.90,0.2,NE,17.3,-,0.01,Fog-Snow,Snow,40,2011-11-23 12:53:00
8:53 AM,28.9,26.1,89,29.91,0.8,NNE,16.1,-,0.01,Snow,Light Snow,30,2011-11-23 13:53:00
9:30 AM,30.2,26.6,86,29.89,1.0,NNE,17.3,-,0.00,Snow,Light Snow,30,2011-11-23 14:30:00
9:53 AM,30.0,26.1,85,29.92,1.2,NE,17.3,-,0.00,Snow,Light Snow,40,2011-11-23 14:53:00
9:58 AM,30.2,26.6,86,29.90,1.5,NNE,18.4,-,0.00,Snow,Light Snow,30,2011-11-23 14:58:00
10:21 AM,30.2,26.6,86,29.91,1.2,NE,17.3,-,0.00,Snow,Light Snow,40,2011-11-23 15:21:00
10:44 AM,30.2,26.6,86,29.90,1.5,NE,18.4,-,0.00,Snow,Light Snow,40,2011-11-23 15:44:00
10:53 AM,30.0,27.0,88,29.92,1.8,NE,13.8,-,0.00,Snow,Light Snow,50,2011-11-23 15:53:00
11:00 AM,30.2,26.6,86,29.90,2.0,NE,17.3,24.2,0.00,Snow,Light Snow,50,2011-11-23 16:00:00
11:14 AM,30.2,26.6,86,29.91,3.0,NE,15.0,-,0.00,,Haze,40,2011-11-23 16:14:00
11:39 AM,30.2,26.6,86,29.90,4.0,NE,11.5,-,0.00,Snow,Light Snow,50,2011-11-23 16:39:00
11:53 AM,30.9,27.0,85,29.93,4.0,NE,15.0,-,0.00,Snow,Light Snow,40,2011-11-23 16:53:00
12:21 PM,30.2,26.6,86,29.92,2.5,NNE,13.8,-,0.00,Snow,Light Snow,30,2011-11-23 17:21:00
12:31 PM,30.2,26.6,86,29.91,1.2,NE,16.1,-,0.00,Snow,Light Snow,40,2011-11-23 17:31:00
12:53 PM,30.9,27.0,85,29.94,1.5,NNE,13.8,-,0.00,Snow,Light Snow,30,2011-11-23 17:53:00
1:01 PM,30.2,26.6,86,29.92,3.0,NNE,10.4,-,0.00,Snow,Light Snow,30,2011-11-23 18:01:00
1:40 PM,32.0,26.6,80,29.94,2.0,NNE,10.4,-,0.00,Snow,Light Snow,20,2011-11-23 18:40:00
1:53 PM,32.0,27.0,82,29.96,1.5,NNE,9.2,-,0.00,Snow,Light Snow,20,2011-11-23 18:53:00
2:35 PM,32.0,26.6,80,29.96,3.0,North,8.1,-,0.00,,Haze,10,2011-11-23 19:35:00
2:53 PM,32.0,27.0,82,30.00,3.0,NNE,9.2,-,0.00,Snow,Light Snow,20,2011-11-23 19:53:00
3:22 PM,32.0,26.6,80,30.00,3.0,NNE,11.5,-,0.00,Snow,Light Snow,30,2011-11-23 20:22:00
3:25 PM,32.0,26.6,80,30.00,2.5,NNE,9.2,-,0.00,Snow,Light Snow,20,2011-11-23 20:25:00
3:36 PM,30.2,26.6,86,30.00,1.5,NNE,8.1,-,N/A,Snow,Light Snow,30,2011-11-23 20:36:00
3:43 PM,30.2,26.6,86,30.00,1.8,NNE,8.1,-,0.00,Snow,Light Snow,20,2011-11-23 20:43:00
3:49 PM,30.2,26.6,86,30.00,3.0,NNE,8.1,-,0.00,Snow,Light Snow,20,2011-11-23 20:49:00
3:50 PM,30.9,27.0,85,30.02,3.0,NNE,8.1,-,0.00,,Overcast,20,2011-11-23 20:50:00
4:02 PM,30.2,26.6,86,30.01,6.0,NNE,5.8,-,N/A,,Overcast,30,2011-11-23 21:02:00
4:46 PM,30.2,26.6,86,30.02,9.0,NNE,6.9,-,N/A,,Overcast,30,2011-11-23 21:46:00
4:53 PM,30.9,27.0,85,30.04,10.0,NE,5.8,-,N/A,,Overcast,40,2011-11-23 21:53:00
5:53 PM,30.9,27.0,85,30.06,6.0,Calm,Calm,-,N/A,,Overcast,0,2011-11-23 22:53:00
6:53 PM,30.9,27.0,85,30.10,10.0,Calm,Calm,-,N/A,,Overcast,0,2011-11-23 23:53:00
7:53 PM,30.0,27.0,88,30.10,10.0,Calm,Calm,-,N/A,,Overcast,0,2011-11-24 00:53:00
8:53 PM,30.0,27.0,88,30.12,10.0,Calm,Calm,-,N/A,,Overcast,0,2011-11-24 01:53:00
9:53 PM,30.2,26.6,86,30.10,10.0,Calm,Calm,-,N/A,,Overcast,0,2011-11-24 02:53:00
10:53 PM,30.0,27.0,88,30.12,9.0,South,3.5,-,N/A,,Overcast,180,2011-11-24 03:53:00
11:53 PM,30.0,27.0,88,30.12,9.0,SSW,3.5,-,N/A,,Overcast,200,2011-11-24 04:53:00